{"data":{"norad_id":68113,"intl_designator":"2026-044N","name":"STARLINK-36937","alt_names":[],"object_type":"PAYLOAD","status":"ACTIVE","operator":null,"country":"US","launch_date":"2026-03-08","launch_site_code":"AFWTR","launch_vehicle":null,"mission":null,"orbit_class":"UNKNOWN","rcs_meters":null,"size_class":null,"mass_kg":null,"dimensions":null,"purposes":["comms"],"wikipedia_slug":null,"has_3d_model":false,"image_url":null,"decayed_at":null,"tle_current":{"epoch":"2026-05-25T03:56:02.853024Z","epoch_age_seconds":71366,"freshness":"FRESH","line1":"1 68113U 26044N   26145.16392191  .00017036  00000+0  52861-3 0  9996","line2":"2 68113  97.2838 105.8031 0001872  88.1232 272.0225 15.33457808 13309","mean_motion":15.33457808,"eccentricity":0.0001872,"inclination_deg":97.2838,"raan_deg":105.8031,"arg_perigee_deg":88.1232,"mean_anomaly_deg":272.0225,"bstar":0.00052861,"rev_number":1330,"period_min":93.905420317896,"perigee_km":464.2239373516,"apogee_km":466.78619694154,"semimajor_km":6843.6420671466,"source":"CELESTRAK","updated_at":"2026-05-25T13:38:21.843283Z"}}}